STARLINK-35085 (65419 NORAD) Tracking and Keplerian Element Data

This shows tracking and keplerian element data for the satellite.

Feedback or suggestion? Click here.




ElementValue
Catalog65419
NameSTARLINK-35085
Epoch Orbit1711
Epoch Day354.0128187
Epoch Year2025
RAAN247.5402
Inclination53.159
Eccentricity0.0001352
Argument of Perigee101.3835
Mean Anonmoly258.7322
Mean Motion15.39651744
Decay Rate0.000406
L11 65419U 25192R 25354.01281870 .00040600 00000+0 10185-2 0 9996
L22 65419 53.1590 247.5402 0001352 101.3835 258.7322 15.39651744 17110



Live tracking and technical data element details for STARLINK-35085 (NORAD 65419). STARLINK-35085 can be tracked NOW for your location showing map with azimuth and elevation plus other details from your city location.







IsCatalogInMostPopularTable: catalog: 65419, numindb: 4
Update: records affected: 1



GetName: 65419 STARLINK-35085

Hit Count: updated at: Sat, 07 Feb 2026 08:30:07 GMT